User: anonymous   Login
Location: Caltech
(34.1382°N, 118.1253°W)
Time: 08:19:15
(UTC-07:00)
Language:

Aureole 3 Rocket - Orbit

View from above orbital plane
View from above orbital plane
View from above satellite
View from above satellite

Ground track
Ground track

The orbit data is extracted from the following two-line orbital elements,

1 12849U 81094B   15184.83738956  .00001262  00000-0  11599-3 0  9993
2 12849 082.4922 354.5991 0907080 174.6185 186.5584 13.49263753645561
Epoch (UTC): 03 July 2015 20:05:50
Eccentricity: 0.0907080
inclination: 82.4922°
perigee height: 399 km
apogee height: 1751 km
right ascension of ascending node: 354.5991°
argument of perigee: 174.6185°
revolutions per day: 13.49263753
mean anomaly at epoch: 186.5584°
orbit number at epoch: 64556

The dashed part of the orbit path shows where the satellite is in the earth's shadow,  

DLR